Time,TemperatureF,DewpointF,PressureIn,WindDirection,WindDirectionDegrees,WindSpeedMPH,WindSpeedGustMPH,Humidity,HourlyPrecipIn,Conditions,Clouds,dailyrainin,SoftwareType,DateUTC
2013-07-29 00:03:00,55.0,-99.9,30.01,WNW,295,2.0,4.0,-999,-99.99,,,-99.99,,2013-07-29 07:03:00,
2013-07-29 00:43:00,52.0,-99.9,30.01,SW,231,3.0,3.0,-999,-99.99,,,-99.99,,2013-07-29 07:43:00,
2013-07-29 01:22:00,52.0,-99.9,30.02,NNE,29,1.0,3.0,-999,-99.99,,,-99.99,,2013-07-29 08:22:00,
2013-07-29 01:33:00,51.0,-99.9,30.02,South,171,0.0,2.0,-999,-99.99,,,-99.99,,2013-07-29 08:33:00,
2013-07-29 02:02:00,51.0,-99.9,30.01,SW,230,-999.0,2.0,-999,-99.99,,,-99.99,,2013-07-29 09:02:00,
2013-07-29 02:12:00,51.0,-99.9,30.01,SSE,156,0.0,1.0,-999,-99.99,,,-99.99,,2013-07-29 09:12:00,
2013-07-29 02:33:00,51.0,-99.9,30.01,West,280,-999.0,1.0,-999,-99.99,,,-99.99,,2013-07-29 09:33:00,
2013-07-29 02:43:00,51.0,-99.9,30.01,SW,236,0.0,2.0,-999,-99.99,,,-99.99,,2013-07-29 09:43:00,
2013-07-29 02:53:00,50.0,-99.9,30.01,WSW,257,3.0,3.0,-999,-99.99,,,-99.99,,2013-07-29 09:53:00,
2013-07-29 03:05:00,49.0,-99.9,30.01,WSW,248,3.0,3.0,-999,-99.99,,,-99.99,,2013-07-29 10:05:00,
2013-07-29 03:26:00,49.0,-99.9,30.01,West,272,2.0,3.0,-999,-99.99,,,-99.99,,2013-07-29 10:26:00,
2013-07-29 03:50:00,50.0,-99.9,30.01,SE,136,2.0,3.0,-999,-99.99,,,-99.99,,2013-07-29 10:50:00,
2013-07-29 03:56:00,50.0,-99.9,30.01,ESE,121,4.0,4.0,-999,-99.99,,,-99.99,,2013-07-29 10:56:00,
2013-07-29 04:07:00,51.0,-99.9,30.01,East,101,5.0,5.0,-999,-99.99,,,-99.99,,2013-07-29 11:07:00,
2013-07-29 04:49:00,51.0,-99.9,30.01,East,91,8.0,9.0,-999,-99.99,,,-99.99,,2013-07-29 11:49:00,
2013-07-29 04:59:00,51.0,-99.9,30.01,East,95,6.0,7.0,-999,-99.99,,,-99.99,,2013-07-29 11:59:00,
2013-07-29 05:11:00,51.0,-99.9,30.01,East,83,3.0,5.0,-999,-99.99,,,-99.99,,2013-07-29 12:11:00,
2013-07-29 05:18:00,51.0,-99.9,30.01,NE,50,3.0,4.0,-999,-99.99,,,-99.99,,2013-07-29 12:18:00,
2013-07-29 05:37:00,50.0,-99.9,30.01,ESE,115,3.0,4.0,-999,-99.99,,,-99.99,,2013-07-29 12:37:00,
2013-07-29 05:49:00,50.0,-99.9,30.01,East,98,3.0,4.0,-999,-99.99,,,-99.99,,2013-07-29 12:49:00,
2013-07-29 05:58:00,50.0,-99.9,30.01,SE,131,3.0,4.0,-999,-99.99,,,-99.99,,2013-07-29 12:58:00,
2013-07-29 06:04:00,50.0,-99.9,30.01,ESE,108,4.0,4.0,-999,-99.99,,,-99.99,,2013-07-29 13:04:00,
2013-07-29 07:07:00,51.0,-99.9,30.02,ESE,115,6.0,7.0,-999,-99.99,,,-99.99,,2013-07-29 14:07:00,
2013-07-29 07:37:00,51.0,-99.9,30.02,ESE,123,6.0,7.0,-999,-99.99,,,-99.99,,2013-07-29 14:37:00,
2013-07-29 07:48:00,51.0,-99.9,30.01,ESE,121,5.0,6.0,-999,-99.99,,,-99.99,,2013-07-29 14:48:00,
2013-07-29 08:10:00,51.0,-99.9,30.01,ESE,122,7.0,8.0,-999,-99.99,,,-99.99,,2013-07-29 15:10:00,
2013-07-29 08:39:00,52.0,-99.9,30.02,SE,132,6.0,8.0,-999,-99.99,,,-99.99,,2013-07-29 15:39:00,
2013-07-29 10:10:00,55.0,-99.9,30.02,ENE,69,1.0,2.0,-999,-99.99,,,-99.99,,2013-07-29 17:10:00,
2013-07-29 10:25:00,55.0,-99.9,30.02,NNE,33,-999.0,1.0,-999,-99.99,,,-99.99,,2013-07-29 17:25:00,
2013-07-29 11:07:00,55.0,-99.9,30.02,WNW,289,4.0,9.0,-999,-99.99,,,-99.99,,2013-07-29 18:07:00,
2013-07-29 11:28:00,55.0,-99.9,30.02,WNW,296,3.0,4.0,-999,-99.99,,,-99.99,,2013-07-29 18:28:00,
2013-07-29 12:00:00,57.0,-99.9,30.03,NW,315,7.0,9.0,-999,-99.99,,,-99.99,,2013-07-29 19:00:00,
2013-07-29 12:28:00,58.0,-99.9,30.03,NW,326,9.0,12.0,-999,-99.99,,,-99.99,,2013-07-29 19:28:00,
2013-07-29 12:48:00,58.0,-99.9,30.03,NW,322,9.0,12.0,-999,-99.99,,,-99.99,,2013-07-29 19:48:00,
2013-07-29 13:49:00,58.0,-99.9,30.03,NW,321,7.0,11.0,-999,-99.99,,,-99.99,,2013-07-29 20:49:00,
2013-07-29 14:08:00,59.0,-99.9,30.03,NW,318,10.0,14.0,-999,-99.99,,,-99.99,,2013-07-29 21:08:00,
2013-07-29 14:25:00,58.0,-99.9,30.03,NW,324,12.0,17.0,-999,-99.99,,,-99.99,,2013-07-29 21:25:00,
2013-07-29 15:05:00,59.0,-99.9,30.04,NW,316,9.0,12.0,-999,-99.99,,,-99.99,,2013-07-29 22:05:00,
2013-07-29 15:48:00,59.0,-99.9,30.03,NW,315,10.0,14.0,-999,-99.99,,,-99.99,,2013-07-29 22:48:00,
2013-07-29 16:27:00,58.0,-99.9,30.03,NW,313,10.0,14.0,-999,-99.99,,,-99.99,,2013-07-29 23:27:00,
2013-07-29 17:08:00,58.0,-99.9,30.04,NW,322,12.0,15.0,-999,-99.99,,,-99.99,,2013-07-30 00:08:00,
2013-07-29 17:28:00,58.0,-99.9,30.04,NW,326,7.0,14.0,-999,-99.99,,,-99.99,,2013-07-30 00:28:00,
2013-07-29 17:52:00,59.0,-99.9,30.03,NNW,328,11.0,15.0,-999,-99.99,,,-99.99,,2013-07-30 00:52:00,
2013-07-29 19:07:00,58.0,-99.9,30.03,NW,317,10.0,14.0,-999,-99.99,,,-99.99,,2013-07-30 02:07:00,
2013-07-29 19:15:00,58.0,-99.9,30.03,NW,322,11.0,15.0,-999,-99.99,,,-99.99,,2013-07-30 02:15:00,
2013-07-29 20:10:00,58.0,-99.9,30.04,NNW,341,7.0,15.0,-999,-99.99,,,-99.99,,2013-07-30 03:10:00,
2013-07-29 20:49:00,58.0,-99.9,30.04,NNW,346,7.0,12.0,-999,-99.99,,,-99.99,,2013-07-30 03:49:00,
2013-07-29 21:03:00,57.0,-99.9,30.05,NW,316,6.0,10.0,-999,-99.99,,,-99.99,,2013-07-30 04:03:00,
2013-07-29 21:33:00,57.0,-99.9,30.06,NNW,334,4.0,8.0,-999,-99.99,,,-99.99,,2013-07-30 04:33:00,
2013-07-29 21:43:00,57.0,-99.9,30.06,NNW,336,4.0,11.0,-999,-99.99,,,-99.99,,2013-07-30 04:43:00,
2013-07-29 21:53:00,57.0,-99.9,30.06,NW,316,6.0,8.0,-999,-99.99,,,-99.99,,2013-07-30 04:53:00,
2013-07-29 22:03:00,57.0,-99.9,30.06,NNW,328,6.0,8.0,-999,-99.99,,,-99.99,,2013-07-30 05:03:00,
2013-07-29 22:45:00,57.0,-99.9,30.07,NNW,334,5.0,9.0,-999,-99.99,,,-99.99,,2013-07-30 05:45:00,
2013-07-29 22:53:00,57.0,-99.9,30.07,North,354,4.0,6.0,-999,-99.99,,,-99.99,,2013-07-30 05:53:00,
2013-07-29 23:03:00,57.0,-99.9,30.07,North,354,4.0,6.0,-999,-99.99,,,-99.99,,2013-07-30 06:03:00,